NOAA 20 (JPSS-1)

Last updated on Mon Sep 21 2026 00:02:41 GMT+0000 (Coordinated Universal Time)

1 43013U 17073A 26263.58034395 .00000043 00000+0 41479-4 0 9990 2 43013 98.7823 202.2130 0001342 43.0680 317.0601 14.19526757458003
UTC large
Height (km)
Speed (km/s)
/
Latitude / Longitude
Inclination (degrees)
Orbital Period (minutes)
Azimuth
Elevation
Range (km)
Doppler Factor

Next 0 passes for location: London (51.5072 / 0.1276)

No passes found over London.
NOAA 20 (JPSS-1)